Temperature
15 15 16 16 18 19 19 19 19 18 18 17 16 17 18 19 19 18 14 14 14 13 14 14 14 14 14 14 14 14 14 14 14 14 14 14 14 14 14 14 14 14 14 14 15 15 14 15 15
15 15 16 17 19 19 19 19 18 18 17 15 15 15 17 16 14 13 13 14 13 13 13 13 13 13 13 14 14 14 14 14 14 14 14 14 14 14 14 14 14 14 14 14 14 14 14 14 14
15 15 16 18 18 19 19 18 18 16 15 15 15 15 15 15 12 12 13 13 13 13 13 13 13 13 13 13 13 14 14 14 14 14 14 14 14 14 14 14 14 14 14 14 14 14 14 14 14
15 15 16 18 18 18 18 18 17 16 15 14 15 15 13 12 12 12 13 13 13 13 13 13 13 13 13 13 13 13 13 13 13 13 13 13 14 14 14 14 14 14 14 14 14 14 14 14 14
14 16 17 17 17 17 17 16 15 17 16 15 15 16 14 12 12 13 13 13 12 12 12 12 12 12 13 13 13 13 13 13 13 13 13 13 13 13 13 13 13 13 13 13 14 14 14 14 14
15 17 17 17 17 17 17 15 15 16 16 14 14 15 13 12 12 12 12 12 12 12 12 12 12 12 12 12 12 13 13 13 13 13 13 13 13 13 13 13 13 13 13 13 13 13 13 13 13
15 17 17 17 17 17 16 15 15 16 16 14 13 15 13 11 11 12 12 12 12 12 12 12 12 12 12 12 12 12 12 12 12 12 12 12 12 12 12 12 12 13 13 13 13 13 13 13 13
14 16 16 16 16 16 15 14 13 14 15 12 12 14 13 11 11 11 11 11 11 11 11 11 11 11 11 11 12 12 12 12 12 12 12 12 12 12 12 12 12 12 12 12 12 12 13 13 13
13 15 16 16 16 16 14 14 13 11 12 11 11 11 11 11 11 11 10 11 10 11 11 11 11 11 11 11 11 11 11 11 11 12 12 11 11 11 11 11 11 12 12 12 12 12 12 12 12
14 15 15 15 15 15 14 13 13 12 13 12 11 10 11 11 10 10 10 10 10 10 10 10 10 11 10 10 10 11 11 11 11 11 11 11 11 11 11 11 11 11 11 11 11 12 12 12 12
13 14 13 13 12 12 12 12 11 13 14 13 12 10 10 10 10 10 10 10 10 10 10 10 10 10 10 10 10 10 10 10 10 11 11 11 11 11 11 11 11 11 11 11 11 11 11 11 11
12 12 11 11 10 10 11 11 11 11 11 10 10 10 10 10 9 10 9 9 9 9 10 10 10 10 10 10 10 10 10 10 10 10 10 10 10 10 10 10 10 10 10 10 10 10 10 10 10
12 11 10 9 9 9 9 10 10 10 9 9 9 9 9 9 9 9 9 9 9 9 9 9 9 9 9 9 9 9 9 9 10 10 10 10 10 10 10 10 10 10 10 10 10 10 10 10 10
11 10 10 9 9 9 10 10 9 9 8 8 8 8 8 8 8 8 8 8 9 9 9 9 9 9 9 9 9 9 9 9 9 9 9 9 9 9 9 9 9 9 9 9 9 9 9 10 10
9 11 11 10 9 9 9 10 10 9 8 8 8 8 8 8 8 8 8 8 8 8 8 8 9 8 8 8 9 9 9 9 9 9 9 9 9 9 9 9 9 9 9 9 9 9 9 9 9
11 11 12 11 9 9 10 12 11 8 7 8 7 7 7 7 7 7 8 8 8 8 8 8 8 8 8 8 8 8 8 8 8 8 8 8 8 8 8 8 8 8 8 8 8 8 8 8 8
11 12 12 11 9 9 10 11 10 7 7 7 7 7 6 6 6 7 7 7 7 7 7 7 7 7 7 7 7 7 7 7 7 7 7 7 8 8 8 8 8 8 8 8 8 8 8 8 8
12 11 11 11 10 9 9 10 10 7 7 7 7 6 6 6 6 6 6 7 7 7 7 7 7 7 7 6 6 6 6 6 6 7 7 7 7 7 7 7 7 7 7 7 7 7 7 7 7
10 10 10 10 9 8 9 9 9 8 7 7 6 6 6 5 5 5 6 6 6 6 6 6 6 6 6 6 6 6 6 6 6 6 6 6 6 6 7 7 7 7 7 7 7 7 7 7 7
9 9 10 9 8 8 8 8 9 8 7 6 6 6 5 5 4 5 5 5 5 6 6 6 6 6 6 6 5 5 5 5 5 5 5 6 6 6 6 6 6 6 6 6 6 6 6 6 6
8 9 9 8 8 7 7 9 9 8 6 5 5 5 4 4 4 4 4 5 5 5 5 5 5 5 5 5 5 5 4 4 4 4 5 5 5 5 5 5 5 5 5 5 5 5 5 5 5
9 8 7 7 8 9 7 10 10 9 7 6 5 5 4 4 3 3 4 4 4 4 4 4 4 4 4 4 4 4 4 4 4 4 4 4 4 4 4 4 4 4 4 4 4 4 4 4 4
7 6 6 6 7 7 7 7 10 8 7 7 6 5 4 3 3 3 3 4 4 4 4 4 4 4 4 4 4 4 4 4 4 3 3 3 4 4 4 4 4 4 3 4 4 4 4 4 4
5 6 6 6 7 7 7 7 10 9 7 7 6 4 3 3 2 2 3 3 3 3 3 3 3 3 3 3 3 3 3 3 3 3 3 3 3 3 3 3 3 3 3 3 3 3 3 3 3
6 7 8 8 8 9 6 6 8 7 6 5 5 4 3 2 2 2 2 2 3 3 3 3 3 3 3 3 3 3 2 2 2 2 2 2 2 2 2 2 2 2 2 2 2 2 2 2 3
6 7 8 8 9 9 6 7 8 5 4 3 2 2 2 1 1 1 1 2 2 2 2 2 2 2 2 2 2 2 2 2 2 2 2 1 1 1 1 1 2 2 2 2 2 2 2 2 2
5 6 6 6 5 6 8 7 6 5 4 3 2 1 1 1 1 0 1 1 1 1 2 2 2 2 2 1 1 1 1 1 1 1 1 1 1 1 1 1 1 1 1 1 1 1 1 1 1
5 5 5 5 6 7 8 7 8 6 5 4 3 2 1 0 0 0 0 0 1 1 1 1 1 1 1 1 1 1 1 1 0 0 0 0 0 0 0 0 0 0 0 0 0 0 0 0 0
4 4 4 5 5 6 7 8 6 5 5 4 3 1 0 -0 -0 -0 -0 -0 0 0 0 0 0 0 0 0 0 0 0 -0 -0 -0 -0 -0 -0 -0 -0 -0 -0 -0 -0 -0 -0 -0 -0 -0 -0
4 4 4 5 4 4 5 7 4 3 3 2 1 0 -0 -1 -1 -1 -1 -1 -0 -0 -0 -0 -0 -0 -0 -0 -1 -1 -1 -1 -1 -1 -1 -1 -1 -1 -1 -1 -1 -1 -1 -1 -1 -1 -1 -1 -1
Wind_Speed
4 2 2 2 4 4 6 5 3 3 3 1 1 2 2 2 1 1 3 2 2 3 4 5 4 5 5 6 7 8 8 8 9 10 11 11 11 12 12 12 12 12 13 13 13 14 14 15 15
2 1 2 3 5 7 5 5 6 3 2 2 2 3 2 2 1 2 2 2 2 4 4 5 5 5 6 7 8 8 9 9 9 10 11 11 11 12 12 12 12 12 13 13 13 13 14 14 15
1 1 2 3 5 8 5 4 4 3 3 3 3 2 2 0 1 1 2 2 3 4 5 6 6 6 6 7 8 8 9 8 9 10 10 10 11 11 11 11 12 12 12 12 13 14 13 14 14
2 2 2 5 9 7 5 3 4 4 3 3 3 2 1 2 2 2 2 3 4 4 5 6 6 6 6 7 8 8 8 8 8 9 9 10 10 10 11 11 11 11 12 12 12 13 13 13 13
1 3 5 7 10 7 5 3 4 4 3 3 3 3 2 2 2 3 3 4 4 5 5 6 6 6 7 7 7 8 8 8 8 8 9 9 9 10 10 11 11 11 11 11 12 12 12 12 12
3 3 6 10 10 7 6 5 5 6 4 3 3 3 2 3 2 3 3 4 4 4 4 5 6 6 6 7 8 8 8 8 8 8 8 9 9 10 10 10 10 10 10 11 11 11 11 11 11
4 4 8 9 9 8 6 5 6 6 6 4 2 3 3 3 2 3 4 4 4 4 4 4 4 5 5 6 7 7 8 8 9 9 8 8 9 9 10 10 10 10 10 10 10 10 10 11 11
2 3 6 8 10 8 4 4 3 5 4 1 2 4 2 3 3 4 4 4 4 3 3 3 3 3 3 4 6 7 7 8 8 9 8 8 8 8 9 9 9 9 9 9 9 9 10 10 10
2 5 9 9 8 5 4 4 3 2 3 2 2 2 1 5 5 5 4 3 3 2 2 2 2 2 2 3 4 5 6 7 7 7 7 6 5 6 6 8 8 8 9 9 9 9 9 9 9
3 7 9 5 5 4 4 4 4 4 5 5 3 2 3 5 6 6 5 5 4 2 1 1 2 2 2 2 3 3 3 4 5 5 5 4 3 4 5 7 7 7 7 7 7 7 6 5 5
3 6 5 4 4 3 4 4 3 6 7 7 6 5 5 6 6 6 6 5 5 4 2 1 1 1 2 2 2 2 2 3 3 4 4 3 3 3 4 4 4 4 4 4 5 5 4 3 3
3 4 4 3 2 3 4 4 4 7 7 4 3 3 6 7 7 7 6 5 4 4 3 2 1 1 2 2 2 2 2 2 2 3 3 3 2 2 2 2 2 2 2 2 2 2 3 3 3
5 4 3 3 3 3 3 6 7 8 6 3 2 3 6 7 7 6 6 5 5 5 4 2 2 2 2 2 2 2 2 2 2 2 2 2 2 1 1 2 2 2 2 1 1 2 2 2 3
2 4 4 4 4 3 5 7 6 7 4 4 4 5 6 7 7 6 6 6 6 5 5 3 3 2 2 2 2 2 2 2 2 2 2 2 2 1 1 1 1 1 1 1 1 1 1 1 2
2 3 4 4 4 3 3 8 10 7 5 5 6 6 6 6 6 7 7 7 6 6 5 4 4 3 3 3 3 2 2 2 2 2 2 2 2 1 1 1 1 1 1 1 1 1 1 1 1
3 4 5 3 3 3 5 11 7 4 6 8 7 6 6 6 6 7 7 6 6 5 5 4 3 4 3 3 3 2 2 3 2 2 2 1 1 1 1 1 1 1 1 1 1 1 1 1 1
4 5 7 5 2 3 7 10 6 3 7 9 8 7 7 6 6 6 6 6 5 5 5 5 4 4 4 3 3 3 3 3 2 2 2 1 1 1 1 1 1 1 1 1 1 1 1 1 1
5 6 7 7 3 5 9 12 9 6 7 9 8 7 7 7 6 5 5 5 5 5 5 5 5 4 4 3 3 3 3 2 2 1 1 1 1 1 1 1 1 1 1 1 1 1 1 1 1
5 7 10 9 5 6 11 14 13 8 7 8 8 7 7 7 5 4 4 4 5 5 5 5 5 4 4 3 3 2 2 1 1 1 1 1 1 1 0 0 1 1 1 2 2 2 2 1 1
8 9 11 8 4 6 9 14 12 9 8 8 8 7 7 6 5 4 3 4 5 5 5 5 5 5 4 3 3 2 2 1 1 1 1 1 0 1 1 1 1 1 1 2 2 2 2 1 1
9 11 11 9 6 4 7 10 9 6 6 6 6 6 6 6 6 5 4 4 4 4 4 4 5 5 5 4 3 2 2 1 1 1 1 1 1 1 1 1 1 1 2 2 3 3 3 2 2
9 7 9 8 7 5 3 8 7 6 6 6 6 5 5 5 5 5 5 4 3 3 3 4 4 4 4 5 4 5 4 3 3 3 2 2 2 1 1 2 2 2 2 3 3 3 3 4 3
5 2 4 6 7 7 5 7 8 3 6 6 6 5 5 4 4 5 4 4 3 2 2 3 4 4 4 4 5 5 5 4 3 3 3 2 2 2 2 2 2 2 2 3 3 3 4 4 4
1 1 1 2 4 7 8 8 8 4 5 5 5 4 4 4 3 3 3 2 2 1 1 2 3 3 4 4 5 5 5 4 4 3 3 2 2 2 2 2 2 2 2 3 3 4 5 4 5
2 2 3 3 4 6 3 7 8 3 3 4 5 5 4 3 2 2 2 2 2 2 2 2 2 2 3 4 5 5 5 4 5 4 4 3 3 2 3 2 3 3 3 3 4 4 5 5 5
4 4 4 5 5 5 3 8 5 2 3 3 3 3 2 2 1 2 2 2 2 2 2 2 2 2 2 3 4 4 4 4 3 4 3 4 3 3 3 3 3 4 4 3 3 4 5 5 5
3 5 3 3 4 7 7 6 6 3 3 2 2 2 2 2 1 2 2 2 2 2 2 2 3 3 3 3 3 3 4 4 4 4 4 4 4 3 4 4 4 4 4 4 4 4 5 5 5
3 3 3 4 5 7 8 8 5 4 5 3 3 3 3 2 1 2 2 2 1 2 2 2 3 3 3 3 3 3 3 4 4 4 4 4 4 4 4 4 5 5 5 5 5 4 5 5 5
5 5 5 4 4 6 8 6 3 6 5 4 4 3 3 3 2 2 2 2 1 1 1 2 2 3 2 2 3 3 3 3 3 4 4 4 4 4 4 4 5 5 5 5 5 6 5 6 6
6 7 8 6 6 6 7 8 1 4 4 4 4 3 3 3 3 2 2 2 2 2 2 2 2 2 2 2 3 3 3 3 3 4 4 4 4 4 4 4 5 5 5 6 6 6 6 7 7
Wind_Direction
328 300 230 213 207 210 227 212 197 174 183 193 202 221 225 219 243 65 67 90 110 138 139 126 102 105 103 101 103 102 97 91 93 97 97 94 90 87 84 80 77 75 73 70 71 75 80 81 82
315 254 210 212 224 218 218 210 203 199 152 157 193 218 214 209 52 67 94 86 132 133 132 120 102 106 100 105 109 107 103 96 95 97 99 97 94 90 87 82 79 76 74 73 72 75 81 82 84
217 248 215 205 223 227 210 172 192 190 182 197 194 218 242 156 91 82 64 121 139 127 125 111 100 108 101 104 112 112 107 102 99 98 98 98 97 94 90 86 82 78 76 74 74 74 81 84 85
211 185 205 225 225 231 229 170 162 182 192 209 207 181 155 43 18 53 84 134 137 126 124 110 99 103 103 99 111 113 110 107 104 101 99 98 99 98 93 88 85 81 78 77 76 77 79 85 88
209 207 208 223 235 234 230 222 197 214 205 191 206 217 173 98 59 82 114 131 134 123 117 110 100 97 96 97 99 105 106 106 104 103 102 100 97 97 95 90 86 83 81 80 79 78 78 81 86
184 206 219 228 231 229 227 214 210 224 221 203 209 223 166 106 95 98 118 126 124 117 109 109 96 92 92 92 90 94 96 99 96 98 101 100 98 94 93 91 88 86 83 82 82 81 80 80 86
207 209 229 233 235 235 229 210 218 223 222 219 223 221 165 131 109 122 125 121 110 103 102 97 102 98 93 93 91 92 92 91 89 86 89 97 96 93 89 87 89 89 86 83 82 81 80 79 87
222 207 225 229 233 241 214 199 226 234 232 209 230 233 194 145 134 132 124 120 109 96 94 93 95 98 104 113 99 94 91 89 87 85 84 89 97 95 89 86 85 87 87 84 82 81 80 80 83
204 221 230 228 230 232 193 206 208 238 217 215 230 277 46 124 139 141 137 135 119 97 85 92 101 101 103 113 109 105 97 88 89 87 85 91 97 98 96 83 84 86 85 85 83 80 80 84 84
207 226 235 238 239 234 212 229 227 212 226 231 221 196 140 144 159 168 170 174 172 165 137 92 114 121 117 107 114 115 110 101 91 89 89 92 90 87 90 90 84 86 85 86 84 86 86 85 86
206 230 236 239 248 245 234 238 234 234 246 246 241 214 175 170 181 191 191 189 188 183 168 136 108 117 127 112 106 102 102 92 90 84 87 93 92 86 88 94 90 86 88 89 88 91 82 80 80
213 243 251 250 251 245 246 243 244 243 259 301 278 209 180 187 195 202 204 200 193 189 185 160 128 127 117 108 111 105 95 86 80 78 84 90 84 78 87 87 84 81 80 86 87 79 79 78 81
223 239 251 263 262 256 253 251 260 258 264 265 241 208 204 204 207 209 209 206 199 197 195 182 157 152 129 117 94 88 92 101 97 88 84 88 90 96 83 81 92 86 80 82 85 92 84 83 79
223 234 254 270 255 250 253 263 252 259 263 238 229 226 221 219 216 214 213 210 207 202 199 188 173 157 134 128 111 100 92 82 84 86 76 82 85 88 114 115 94 84 83 86 100 106 105 95 88
217 249 259 256 248 240 250 260 242 248 235 237 236 236 233 231 222 221 220 215 210 204 196 188 177 158 150 141 122 106 103 96 79 63 79 73 73 92 115 113 95 71 97 104 101 97 96 84 89
218 238 254 248 241 231 235 257 247 228 231 245 246 242 237 232 227 225 220 214 208 201 194 188 176 162 156 146 135 117 107 102 87 69 68 64 60 77 100 111 93 94 143 118 112 134 120 100 82
219 245 255 260 228 237 232 260 268 250 239 247 248 243 237 233 229 223 215 209 204 200 194 187 182 171 163 152 135 120 110 100 90 76 60 47 49 77 110 106 104 144 142 146 147 163 154 156 103
244 249 260 263 270 249 248 257 270 273 253 252 252 248 240 236 230 216 207 203 202 198 196 187 180 178 170 159 146 131 123 106 96 85 62 56 44 63 97 94 128 144 156 168 166 157 153 164 144
261 261 267 270 281 266 258 266 271 272 263 257 251 246 242 244 241 221 209 200 196 196 198 191 181 180 170 165 171 171 175 145 117 92 75 57 42 95 124 121 166 181 188 191 180 163 155 168 163
247 261 272 281 286 268 272 273 271 261 256 259 255 248 245 246 239 228 222 212 206 201 199 197 192 186 178 177 184 190 183 174 151 120 119 143 124 139 190 200 200 216 197 183 184 175 185 234 226
247 253 266 277 294 255 286 275 254 247 250 258 257 252 251 244 241 233 223 219 211 209 208 203 200 196 187 178 169 152 156 159 180 183 187 207 202 186 194 222 210 217 203 199 201 200 200 213 225
256 254 261 267 272 272 277 284 266 256 253 253 254 252 251 246 243 236 229 224 220 221 212 209 203 202 194 181 178 174 186 200 209 213 210 202 200 208 205 222 222 219 217 213 214 219 224 212 216
262 289 258 256 252 266 245 258 273 240 250 257 253 251 253 248 240 233 229 224 221 224 209 201 198 203 197 188 189 192 200 210 209 207 210 205 203 214 219 224 223 227 227 221 217 221 228 225 225
212 234 233 215 231 252 240 238 273 242 247 261 260 258 261 255 246 239 232 217 208 202 190 185 191 200 200 192 193 197 202 203 200 203 209 211 216 221 227 233 232 235 239 229 228 228 230 229 233
202 245 266 247 232 250 198 234 258 277 269 269 275 280 291 275 253 239 229 219 214 206 199 196 191 201 207 198 199 203 210 210 209 212 217 218 222 229 231 236 241 242 245 244 235 232 234 231 231
215 230 242 267 269 278 221 240 254 290 303 296 290 285 285 272 257 244 237 230 223 219 215 216 224 222 217 212 212 211 211 218 222 222 226 225 231 237 237 238 245 245 242 242 241 238 236 237 235
200 219 251 265 279 273 255 256 273 251 267 267 277 258 247 253 266 269 265 248 240 233 228 227 229 233 228 228 228 225 219 219 224 229 234 237 240 244 237 237 243 242 238 238 239 239 239 238 237
248 196 187 218 260 264 263 255 253 239 238 244 255 243 246 272 295 292 277 269 267 264 255 243 241 242 245 239 235 236 234 234 231 229 231 240 246 242 238 237 238 239 237 235 234 239 240 238 239
189 199 213 223 245 258 271 264 233 242 239 241 260 251 245 256 277 288 293 294 299 298 271 254 251 249 248 247 242 241 243 243 244 241 241 244 247 244 240 242 241 239 238 235 232 234 237 239 242
228 220 207 227 234 236 261 269 192 242 260 257 266 267 260 260 265 272 294 307 314 311 299 276 263 256 255 254 248 246 248 245 244 250 250 247 248 246 247 247 246 246 245 241 237 237 237 239 241
Height
1520 1521 1523 1525 1524 1520 1519 1518 1519 1522 1523 1526 1527 1526 1524 1524 1526 1531 1531 1528 1530 1531 1533 1534 1535 1536 1537 1538 1538 1539 1540 1540 1540 1540 1540 1540 1540 1540 1540 1540 1539 1539 1539 1538 1537 1536 1535 1534 1532
1520 1522 1524 1524 1519 1518 1517 1517 1520 1521 1525 1527 1527 1527 1526 1527 1528 1529 1528 1528 1530 1531 1533 1534 1535 1536 1537 1538 1539 1539 1540 1540 1540 1541 1541 1541 1541 1541 1541 1541 1540 1540 1540 1539 1539 1538 1537 1537 1536
1520 1521 1524 1520 1517 1514 1515 1518 1520 1524 1526 1526 1527 1527 1527 1528 1528 1528 1528 1528 1530 1531 1533 1534 1535 1536 1537 1538 1539 1539 1540 1540 1541 1541 1541 1541 1541 1541 1541 1541 1541 1541 1541 1540 1540 1540 1539 1539 1539
1521 1523 1523 1519 1516 1514 1516 1519 1522 1524 1525 1526 1526 1527 1527 1527 1527 1527 1527 1528 1530 1532 1533 1534 1535 1536 1537 1538 1538 1539 1540 1540 1541 1541 1541 1541 1542 1542 1542 1542 1542 1542 1542 1541 1541 1541 1541 1541 1541
1521 1521 1519 1517 1515 1516 1519 1521 1523 1522 1523 1525 1526 1525 1526 1526 1526 1526 1527 1529 1530 1531 1533 1534 1535 1536 1537 1537 1538 1539 1540 1540 1541 1541 1541 1541 1542 1542 1542 1542 1542 1542 1542 1542 1542 1542 1542 1542 1542
1521 1519 1516 1513 1512 1516 1519 1522 1523 1522 1523 1524 1525 1525 1525 1525 1525 1526 1527 1528 1530 1531 1532 1534 1535 1536 1536 1537 1538 1538 1539 1540 1540 1541 1541 1541 1542 1542 1542 1542 1542 1543 1543 1543 1543 1543 1543 1543 1543
1520 1516 1513 1512 1512 1514 1518 1521 1521 1521 1521 1523 1524 1524 1524 1524 1525 1526 1527 1528 1529 1530 1532 1533 1534 1535 1536 1537 1537 1538 1539 1539 1540 1540 1541 1541 1541 1542 1542 1542 1542 1543 1543 1543 1544 1544 1544 1544 1544
1518 1517 1514 1513 1513 1513 1518 1520 1521 1521 1521 1523 1524 1524 1524 1524 1524 1525 1526 1527 1529 1530 1531 1532 1533 1534 1535 1536 1537 1538 1538 1539 1539 1540 1540 1541 1541 1541 1542 1542 1542 1543 1543 1543 1544 1544 1544 1544 1545
1518 1517 1511 1511 1513 1514 1518 1519 1521 1521 1522 1522 1522 1523 1523 1523 1523 1524 1525 1526 1528 1529 1530 1531 1532 1533 1534 1535 1536 1537 1538 1538 1538 1539 1540 1540 1540 1540 1541 1542 1542 1542 1543 1543 1544 1544 1544 1544 1545
1517 1513 1509 1513 1514 1515 1518 1519 1520 1520 1520 1521 1521 1521 1521 1521 1522 1523 1524 1525 1526 1527 1528 1530 1531 1532 1533 1534 1535 1536 1536 1537 1537 1538 1539 1539 1539 1540 1540 1541 1541 1542 1543 1543 1543 1544 1544 1545 1545
1516 1513 1513 1516 1517 1517 1517 1518 1519 1519 1517 1518 1519 1519 1519 1520 1520 1521 1522 1523 1524 1525 1527 1528 1529 1530 1531 1532 1533 1534 1534 1535 1536 1537 1537 1538 1538 1539 1539 1540 1541 1541 1542 1543 1543 1543 1544 1544 1545
1516 1516 1516 1516 1517 1517 1517 1518 1518 1517 1517 1517 1517 1517 1517 1518 1518 1519 1520 1521 1522 1523 1525 1526 1527 1528 1530 1530 1531 1532 1533 1534 1534 1535 1536 1536 1537 1538 1538 1539 1540 1540 1541 1541 1542 1542 1543 1544 1544
1515 1516 1517 1517 1517 1517 1517 1517 1517 1515 1515 1515 1515 1515 1515 1516 1516 1517 1518 1519 1520 1521 1522 1524 1525 1526 1527 1528 1529 1530 1531 1532 1533 1533 1534 1535 1536 1537 1537 1538 1538 1539 1540 1540 1541 1542 1542 1543 1543
1515 1516 1516 1516 1515 1516 1516 1515 1515 1512 1513 1513 1513 1513 1513 1513 1514 1515 1515 1516 1517 1518 1519 1521 1522 1523 1525 1526 1527 1528 1529 1530 1531 1532 1532 1533 1534 1535 1536 1536 1537 1538 1538 1539 1539 1540 1541 1541 1542
1516 1515 1513 1513 1514 1514 1515 1511 1510 1510 1511 1510 1510 1510 1510 1510 1511 1511 1512 1513 1514 1515 1516 1517 1519 1521 1522 1523 1525 1526 1527 1528 1528 1529 1530 1531 1532 1533 1534 1535 1535 1536 1536 1537 1538 1538 1539 1540 1540
1514 1512 1508 1509 1512 1513 1515 1503 1505 1508 1509 1508 1508 1507 1507 1507 1508 1508 1509 1510 1511 1512 1513 1515 1516 1518 1519 1521 1522 1523 1524 1525 1526 1527 1528 1529 1530 1531 1532 1532 1533 1534 1535 1535 1536 1536 1537 1537 1538
1510 1506 1504 1507 1510 1511 1510 1502 1504 1506 1506 1505 1505 1505 1505 1505 1505 1505 1506 1507 1508 1509 1510 1511 1513 1514 1516 1518 1519 1520 1521 1522 1523 1524 1525 1526 1527 1528 1529 1530 1531 1532 1532 1533 1533 1534 1534 1535 1535
1505 1504 1505 1505 1507 1509 1506 1501 1502 1503 1503 1502 1502 1502 1502 1502 1502 1502 1503 1504 1505 1506 1507 1508 1510 1512 1513 1515 1516 1517 1518 1519 1520 1521 1522 1523 1524 1525 1526 1527 1528 1529 1529 1530 1530 1531 1532 1532 1533
1508 1507 1505 1504 1508 1508 1502 1499 1498 1500 1500 1499 1499 1499 1499 1499 1499 1500 1500 1501 1501 1502 1504 1504 1506 1508 1509 1510 1512 1513 1514 1515 1516 1517 1519 1520 1521 1522 1523 1524 1525 1525 1526 1527 1527 1528 1529 1529 1530
1510 1508 1504 1504 1508 1507 1501 1496 1495 1496 1496 1496 1496 1496 1496 1496 1496 1496 1496 1497 1498 1499 1500 1501 1503 1504 1505 1507 1508 1510 1511 1512 1513 1514 1515 1516 1517 1518 1519 1520 1521 1522 1522 1523 1524 1525 1525 1526 1527
1508 1506 1505 1506 1507 1507 1504 1489 1488 1490 1492 1493 1493 1493 1493 1493 1493 1493 1493 1494 1495 1495 1496 1498 1499 1501 1502 1504 1505 1507 1508 1509 1510 1511 1512 1513 1513 1514 1515 1516 1517 1518 1519 1520 1520 1521 1522 1523 1524
1504 1506 1508 1508 1505 1498 1503 1486 1479 1484 1487 1488 1489 1490 1489 1490 1490 1490 1490 1491 1491 1492 1493 1495 1496 1497 1498 1500 1502 1503 1504 1505 1506 1507 1508 1508 1509 1510 1511 1512 1513 1514 1515 1516 1517 1518 1519 1520 1520
1506 1509 1508 1507 1504 1502 1501 1497 1475 1483 1483 1484 1486 1487 1487 1487 1487 1487 1487 1487 1488 1490 1491 1492 1493 1494 1495 1497 1498 1499 1500 1502 1503 1503 1504 1504 1505 1506 1507 1509 1509 1510 1511 1512 1513 1514 1515 1515 1516
1510 1509 1508 1507 1503 1498 1494 1494 1472 1476 1480 1481 1483 1484 1484 1484 1484 1484 1484 1485 1486 1487 1488 1489 1490 1491 1492 1494 1495 1496 1497 1498 1499 1499 1500 1500 1501 1502 1503 1504 1505 1506 1507 1508 1508 1509 1510 1511 1512
1509 1505 1498 1494 1493 1484 1494 1492 1477 1478 1481 1482 1483 1483 1483 1483 1483 1482 1482 1482 1483 1484 1485 1486 1487 1488 1489 1490 1491 1492 1493 1494 1495 1495 1496 1497 1497 1498 1499 1500 1501 1502 1503 1503 1504 1505 1506 1506 1507
1506 1504 1499 1494 1484 1479 1493 1485 1476 1481 1482 1483 1483 1483 1482 1482 1481 1481 1481 1481 1481 1481 1482 1483 1483 1484 1485 1486 1487 1488 1489 1490 1491 1492 1492 1493 1493 1494 1494 1495 1496 1497 1498 1499 1500 1500 1501 1501 1502
1506 1504 1505 1503 1503 1497 1479 1478 1479 1480 1481 1481 1482 1481 1481 1480 1480 1479 1479 1479 1479 1479 1480 1480 1481 1482 1482 1483 1484 1484 1486 1486 1487 1488 1489 1489 1489 1490 1490 1491 1492 1493 1493 1494 1495 1495 1496 1497 1497
1507 1504 1506 1502 1496 1485 1473 1473 1470 1475 1476 1478 1479 1479 1479 1479 1478 1478 1478 1478 1477 1478 1478 1478 1479 1479 1479 1479 1480 1481 1481 1482 1483 1483 1484 1484 1485 1485 1486 1486 1487 1488 1489 1489 1490 1490 1491 1491 1492
1506 1507 1502 1499 1498 1488 1476 1468 1472 1473 1474 1476 1477 1478 1478 1477 1476 1476 1476 1476 1476 1475 1475 1475 1476 1475 1476 1476 1476 1477 1477 1478 1478 1478 1479 1480 1480 1481 1481 1481 1482 1483 1483 1484 1484 1485 1485 1486 1486
1502 1500 1500 1497 1495 1496 1485 1473 1473 1474 1475 1476 1476 1476 1476 1476 1475 1474 1474 1474 1473 1473 1473 1472 1472 1472 1472 1472 1473 1473 1473 1473 1473 1474 1474 1475 1475 1476 1476 1476 1477 1477 1478 1478 1479 1479 1480 1480 1480